[[{"header":{"parameterUnit":"m.s-1","parameterCategory":1,"la1":30.2991,"la2":30.254,"lo1":-89.0895,"lo2":-89.0444,"dx":0.0017,"dy":0.0017,"nx":28,"ny":28,"refTime":"2022-11-18T15:00:00:Z","depth":0,"parameterNumber":2,"parameterNumberName":"U-component_of_WINDS"},"data":[0,0,0,0,0,0,0,0,0,0,0,0,0,0,0,0,0,0,0,0,0,0,0,0,0,0,0,0,0,0,0,0,0,0,0,0,0,0,0,0,0,0,0,0,0,0,0,0,0,0,0,0,0,0,0,0,0,0,-3.6478,-3.6479,0,-3.6535,-3.6536,-3.6536,-3.6421,-3.6417,-3.6413,-3.641,-3.6469,-3.6474,-3.6479,0,0,0,0,0,0,0,0,0,0,0,0,0,-3.6271,-3.6276,-3.6478,-3.6479,-3.648,-3.6535,-3.6536,-3.6536,-3.6421,-3.6417,-3.6412,-3.6408,-3.6468,-3.6474,-3.648,0,0,0,0,0,0,0,0,0,0,0,0,0,-3.6348,-3.6277,-3.6478,-3.6429,-3.6425,-3.6535,-3.6536,-3.6537,-3.6422,-3.6417,-3.6411,-3.6406,-3.6466,-3.6473,-3.6481,-3.6642,0,0,-3.6504,-3.6508,0,0,0,0,0,0,0,0,-3.6344,-3.6356,-3.6435,-3.6432,-3.6428,-3.6465,-3.6484,-3.6572,-3.6424,-3.6423,-3.6409,-3.6403,-3.6473,-3.6479,-3.6502,-3.6644,-3.6647,-3.6505,-3.651,-3.6513,-3.6515,0,0,0,0,0,0,0,-3.6339,-3.6353,-3.6501,-3.6437,-3.6432,-3.6404,-3.6409,-3.6501,-3.6479,-3.6423,-3.6415,-3.6423,-3.647,-3.6495,-3.6503,-3.6648,-3.6505,-3.6512,-3.6516,-3.6519,-3.6925,-3.6931,0,0,0,0,0,0,-3.6339,-3.6349,-3.6499,-3.6502,-3.6371,-3.6413,-3.6418,-3.6459,-3.6478,-3.6475,-3.6428,-3.6417,-3.6485,-3.6494,-3.6505,-3.6695,-3.6513,-3.652,-3.6524,-3.6919,-3.6927,-3.6933,0,0,0,0,0,0,-3.6335,-3.6354,-3.6496,-3.6423,-3.6439,-3.6422,-3.6469,-3.6463,-3.6489,-3.6481,-3.6477,-3.6458,-3.6481,-3.6494,-3.6608,-3.6696,-3.6523,-3.653,-3.6912,-3.6921,-3.693,-3.7077,0,0,0,0,0,0,-3.633,-3.6353,-3.6414,-3.6426,-3.6444,-3.66,-3.6475,-3.6468,-3.6502,-3.6489,-3.6509,-3.6506,-3.6478,-3.6598,-3.6616,-3.6703,-3.6536,-3.6904,-3.6916,-3.6927,-3.7065,-3.7091,-3.7113,0,0,0,0,0,-3.6323,-3.6453,-3.6417,-3.6436,-3.6519,-3.6605,-3.6615,-3.6579,-3.6509,-3.6571,-3.6566,-3.6506,-3.6683,-3.661,-3.663,-3.6721,-3.6898,-3.6913,-3.6926,-3.7054,-3.7085,-3.7112,0,0,0,0,0,0,-3.6453,-3.6454,-3.6414,-3.6552,-3.6579,-3.6585,-3.6661,-3.6613,-3.6661,-3.6647,-3.66,-3.6605,-3.6729,-3.6736,-3.6655,-3.6878,-3.6779,-3.6797,-3.6869,-3.6899,-3.6923,-3.692,-3.6543,0,0,0,0,0,-3.6497,-3.6566,-3.6563,-3.6685,-3.6701,-3.6679,-3.6715,-3.6684,-3.6711,-3.6722,-3.6725,-3.6754,-3.6815,-3.6857,-3.6913,-3.7064,-3.7068,-3.7136,-3.716,-3.718,-3.7197,-3.7279,-3.731,-3.6979,-3.6979,-3.6979,0,0,-3.659,-3.6599,-3.6646,-3.6712,-3.6729,-3.6802,-3.6689,-3.6771,-3.6825,-3.6734,-3.6843,-3.6847,-3.6875,-3.7009,-3.7068,-3.7018,-3.7289,-3.7198,-3.7214,-3.722,-3.7296,-3.7328,-3.7355,-3.6988,-3.6987,-3.6985,0,0,-3.6797,-3.6811,-3.6914,-3.6934,-3.6961,-3.6946,-3.6971,-3.6984,-3.6983,-3.7091,-3.7024,-3.7088,-3.7195,-3.7218,-3.7244,-3.746,-3.7407,-3.748,-3.7606,-3.7686,-3.7712,-3.7735,-3.7813,-3.7842,-3.7496,-3.7497,-3.7497,0,-3.691,-3.7017,-3.6974,-3.7061,-3.7092,-3.7012,-3.7117,-3.7138,-3.7183,-3.7207,-3.715,-3.7284,-3.7297,-3.7436,-3.7488,-3.7511,-3.7539,-3.7478,-3.7711,-3.7734,-3.7755,-3.7829,-3.7859,-3.7506,-3.7505,-3.7504,-3.7503,0,-3.7155,-3.723,-3.731,-3.7356,-3.7396,-3.7491,-3.7463,-3.7509,-3.7475,-3.7465,-3.7577,-3.759,-3.7648,-3.7678,-3.7646,-3.7813,-3.7781,-3.7719,-3.7619,-3.7796,-3.7865,-3.7893,-3.7518,-3.7515,-3.7512,-3.751,0,0,-3.7447,-3.7466,-3.7497,-3.7517,-3.7541,-3.7599,-3.7691,-3.7747,-3.7788,-3.7821,-3.7898,-3.799,-3.7933,-3.7962,-3.7931,-3.8001,-3.8173,-3.793,-3.793,-3.7977,-3.836,-3.8408,-3.8442,-3.8137,-3.8143,-3.8147,-3.8358,0,-3.7654,-3.7812,-3.7776,-3.7932,-3.8002,-3.7926,-3.8006,-3.803,-3.8024,-3.8082,-3.8075,-3.8142,-3.806,-3.8077,-3.8143,-3.8139,-3.825,-3.8123,-3.821,-3.8214,-3.8207,-3.8478,-3.8529,-3.8728,-3.8385,-3.8389,-3.8392,0,-3.7916,-3.796,-3.8124,-3.8137,-3.8165,-3.8238,-3.8286,-3.8343,-3.8368,-3.8359,-3.8392,-3.8347,-3.8439,-3.8337,-3.8463,-3.8377,-3.841,-3.8414,-3.842,-3.8429,-3.8315,-3.8496,-3.879,-3.8821,-3.8434,-3.8431,-3.8428,0,-3.8116,-3.8215,-3.8325,-3.8345,-3.8362,-3.8416,-3.8426,-3.8445,-3.8482,-3.8524,-3.8548,-3.8601,-3.863,-3.8673,-3.8644,-3.8572,-3.8776,-3.867,-3.8771,-3.8773,-3.882,-3.8818,-3.9126,-3.8838,-3.8838,-3.8837,-3.8836,0,-3.8352,-3.8455,-3.8415,-3.8484,-3.8598,-3.8555,-3.8669,-3.867,-3.8688,-3.8756,-3.8693,-3.8758,-3.8715,-3.8777,-3.8755,-3.8864,-3.8877,-3.8873,-3.8866,-3.888,-3.888,-3.8902,-3.8888,-3.8845,-3.8843,-3.8842,-3.884,0,-3.8594,-3.8572,-3.8688,-3.8695,-3.8699,-3.8783,-3.8789,-3.8853,-3.8841,-3.8928,-3.8946,-3.8928,-3.8997,-3.8972,-3.9046,-3.9031,-3.9171,-3.9145,-3.9163,-3.9157,-3.926,-3.9251,-3.9595,-3.9638,-3.9321,-3.9324,-3.9326,0,-3.8748,-3.8825,-3.8841,-3.8882,-3.8896,-3.8962,-3.8999,-3.8959,-3.9,-3.9035,-3.9096,-3.9159,-3.9208,-3.9322,-3.9317,-3.9373,-3.9349,-3.9466,-3.9358,-3.9369,-3.9353,-3.935,-3.9358,-3.9488,-3.9492,-3.9495,-3.9497,0,-3.9023,-3.9007,-3.9062,-3.9114,-3.916,-3.9199,-3.9232,-3.9269,-3.9231,-3.928,-3.935,-3.9388,-3.9463,-3.9528,-3.9579,-3.9589,-3.9538,-3.9531,-3.9558,-3.9574,-3.9581,-3.958,-3.9224,-3.9524,-3.9521,-3.9519,-3.9518,-3.9517,-3.9226,-3.9292,-3.9314,-3.9377,-3.9398,-3.9431,-3.9491,-3.9487,-3.9545,-3.9603,-3.9575,-3.9657,-3.968,-3.9743,-3.9761,-3.9824,-3.9779,-3.9817,-3.9827,-3.9838,-3.9852,-3.957,-3.9833,-3.9832,-3.9831,-3.9831,-3.983,0,-3.9499,-3.9509,-3.9568,-3.9617,-3.9667,-3.9613,-3.9647,-3.9693,-3.9765,-3.9791,-3.9841,-3.9921,-3.9984,-3.9982,-4.004,-4.0091,-4.0069,-4.0108,-4.0105,-4.0108,-3.9888,-3.986,-4.0125,-4.0125,-4.0125,-4.0125,-4.0124,-4.0124,-3.9648,-3.9757,-3.9744,-3.9863,-3.9872,-3.9951,-3.9976,-4.0006,-4.0026,-4.0119,-4.017,-4.0169,-4.0184,-4.0242,-4.0297,-4.0295,-4.032,-4.0368,-4.0358,-4.0153,-4.0124,-4.0096,-4.0069,-4.0373,-4.0374,-4.0572,-4.0574,-4.0576]},{"header":{"parameterUnit":"m.s-1","parameterCategory":1,"la1":30.2991,"la2":30.254,"lo1":-89.0895,"lo2":-89.0444,"dx":0.0017,"dy":0.0017,"nx":28,"ny":28,"refTime":"2022-11-18T15:00:00:Z","depth":0,"parameterNumber":3,"parameterNumberName":"V-component_of_WINDS"},"data":[0,0,0,0,0,0,0,0,0,0,0,0,0,0,0,0,0,0,0,0,0,0,0,0,0,0,0,0,0,0,0,0,0,0,0,0,0,0,0,0,0,0,0,0,0,0,0,0,0,0,0,0,0,0,0,0,0,0,-4.6519,-4.652,0,-4.6555,-4.6555,-4.6556,-4.6482,-4.648,-4.6477,-4.6475,-4.6509,-4.6512,-4.6515,0,0,0,0,0,0,0,0,0,0,0,0,0,-4.6384,-4.6387,-4.6519,-4.652,-4.652,-4.6555,-4.6555,-4.6556,-4.6483,-4.648,-4.6477,-4.6474,-4.6508,-4.6511,-4.6515,0,0,0,0,0,0,0,0,0,0,0,0,0,-4.6434,-4.6388,-4.6519,-4.6488,-4.6486,-4.6555,-4.6555,-4.6556,-4.6483,-4.648,-4.6476,-4.6473,-4.6506,-4.6511,-4.6516,-4.6616,0,0,-4.653,-4.6532,0,0,0,0,0,0,0,0,-4.6431,-4.6439,-4.6492,-4.649,-4.6488,-4.6511,-4.652,-4.6576,-4.6484,-4.6484,-4.6475,-4.6471,-4.6512,-4.6516,-4.653,-4.6618,-4.6619,-4.653,-4.6533,-4.6535,-4.6536,0,0,0,0,0,0,0,-4.6428,-4.6437,-4.6533,-4.6493,-4.649,-4.6471,-4.6474,-4.653,-4.6518,-4.6484,-4.6479,-4.6484,-4.651,-4.6526,-4.6531,-4.6619,-4.653,-4.6534,-4.6537,-4.6539,-4.679,-4.6793,0,0,0,0,0,0,-4.6429,-4.6435,-4.6532,-4.6534,-4.645,-4.6476,-4.648,-4.6507,-4.6517,-4.6515,-4.6487,-4.648,-4.652,-4.6525,-4.6532,-4.6649,-4.6535,-4.6539,-4.6542,-4.6786,-4.679,-4.6795,0,0,0,0,0,0,-4.6426,-4.6438,-4.6531,-4.6483,-4.6493,-4.6482,-4.6513,-4.6509,-4.6525,-4.6519,-4.6516,-4.6506,-4.6517,-4.6525,-4.6596,-4.665,-4.6542,-4.6546,-4.6781,-4.6787,-4.6793,-4.6886,0,0,0,0,0,0,-4.6423,-4.6438,-4.6477,-4.6485,-4.6496,-4.6596,-4.6517,-4.6513,-4.6534,-4.6526,-4.6536,-4.6534,-4.6515,-4.6589,-4.66,-4.6654,-4.6549,-4.6776,-4.6784,-4.6791,-4.6878,-4.6895,-4.6909,0,0,0,0,0,-4.6418,-4.6501,-4.6479,-4.6491,-4.6545,-4.6599,-4.6605,-4.6582,-4.6539,-4.6577,-4.6573,-4.6534,-4.6642,-4.6597,-4.6609,-4.6665,-4.6773,-4.6782,-4.679,-4.6872,-4.6891,-4.6908,0,0,0,0,0,0,-4.6499,-4.6502,-4.6477,-4.6566,-4.6583,-4.6586,-4.6634,-4.6604,-4.6633,-4.6624,-4.6593,-4.6596,-4.6672,-4.6675,-4.6625,-4.6762,-4.67,-4.6711,-4.6758,-4.6776,-4.6791,-4.6789,-4.6553,0,0,0,0,0,-4.6528,-4.6572,-4.6571,-4.665,-4.6659,-4.6646,-4.6668,-4.6649,-4.6665,-4.6671,-4.6672,-4.6689,-4.6726,-4.6751,-4.6785,-4.6878,-4.6879,-4.6922,-4.6937,-4.695,-4.696,-4.7009,-4.7028,-4.6823,-4.6823,-4.6823,0,0,-4.6586,-4.6593,-4.6623,-4.6666,-4.6677,-4.6723,-4.6652,-4.6704,-4.6737,-4.6679,-4.6746,-4.6747,-4.6763,-4.6845,-4.6881,-4.685,-4.7017,-4.6961,-4.6971,-4.6975,-4.702,-4.704,-4.7057,-4.6829,-4.6828,-4.6827,0,0,-4.6717,-4.6727,-4.6793,-4.6805,-4.6823,-4.6813,-4.6829,-4.6837,-4.6836,-4.6903,-4.686,-4.6899,-4.6964,-4.6977,-4.6992,-4.7126,-4.7092,-4.7138,-4.7217,-4.7265,-4.7281,-4.7295,-4.7343,-4.7361,-4.7148,-4.7149,-4.7149,0,-4.6788,-4.6856,-4.683,-4.6885,-4.6905,-4.6855,-4.6921,-4.6933,-4.6961,-4.6975,-4.694,-4.702,-4.7027,-4.7112,-4.7145,-4.7158,-4.7175,-4.7137,-4.7281,-4.7295,-4.7308,-4.7353,-4.7371,-4.7154,-4.7154,-4.7153,-4.7153,0,-4.6942,-4.699,-4.7041,-4.707,-4.7095,-4.7155,-4.7137,-4.7166,-4.7144,-4.7137,-4.7205,-4.7212,-4.7246,-4.7265,-4.7244,-4.7346,-4.7326,-4.7287,-4.7223,-4.7334,-4.7376,-4.7393,-4.7162,-4.716,-4.7159,-4.7157,0,0,-4.7126,-4.7139,-4.7158,-4.7171,-4.7186,-4.7222,-4.7279,-4.7313,-4.7338,-4.7358,-4.7405,-4.7461,-4.7424,-4.7442,-4.7421,-4.7463,-4.7569,-4.7418,-4.7418,-4.7446,-4.7682,-4.7712,-4.7733,-4.7546,-4.7549,-4.7552,-4.7681,0,-4.7255,-4.7355,-4.7333,-4.7431,-4.7474,-4.7427,-4.7476,-4.749,-4.7485,-4.7521,-4.7514,-4.7555,-4.7504,-4.7514,-4.7553,-4.7548,-4.7616,-4.7538,-4.7589,-4.7591,-4.7587,-4.7755,-4.7787,-4.7908,-4.7697,-4.77,-4.7702,0,-4.742,-4.7448,-4.755,-4.7558,-4.7575,-4.7621,-4.765,-4.7684,-4.7699,-4.7692,-4.7711,-4.7683,-4.7738,-4.7674,-4.7749,-4.7697,-4.7715,-4.7716,-4.772,-4.7724,-4.7653,-4.7764,-4.7946,-4.7965,-4.7727,-4.7725,-4.7724,0,-4.7544,-4.7606,-4.7675,-4.7687,-4.7698,-4.7731,-4.7737,-4.7748,-4.777,-4.7795,-4.7808,-4.7839,-4.7856,-4.788,-4.786,-4.7816,-4.7939,-4.7873,-4.7934,-4.7935,-4.7963,-4.7961,-4.8152,-4.7975,-4.7974,-4.7974,-4.7974,0,-4.7691,-4.7756,-4.7731,-4.7774,-4.7844,-4.7817,-4.7887,-4.7887,-4.7898,-4.7938,-4.7899,-4.7938,-4.7908,-4.7945,-4.7929,-4.7993,-4.8001,-4.7997,-4.7992,-4.8001,-4.8002,-4.8013,-4.8004,-4.7979,-4.7978,-4.7977,-4.7976,0,-4.7842,-4.7828,-4.79,-4.7905,-4.7907,-4.7959,-4.7962,-4.8001,-4.7993,-4.8045,-4.8056,-4.8043,-4.8083,-4.8065,-4.8108,-4.8097,-4.818,-4.8164,-4.8176,-4.8172,-4.8234,-4.8228,-4.8438,-4.8464,-4.8271,-4.8272,-4.8274,0,-4.7937,-4.7986,-4.7995,-4.802,-4.8029,-4.807,-4.8092,-4.8067,-4.8091,-4.8111,-4.8148,-4.8185,-4.8213,-4.828,-4.8274,-4.8305,-4.829,-4.8361,-4.8294,-4.8301,-4.8291,-4.8288,-4.8293,-4.8375,-4.8377,-4.8379,-4.838,0,-4.8107,-4.8098,-4.8132,-4.8164,-4.8192,-4.8216,-4.8235,-4.8258,-4.8233,-4.8263,-4.8304,-4.8326,-4.8369,-4.8406,-4.8434,-4.8439,-4.8406,-4.8401,-4.8417,-4.8427,-4.8432,-4.843,-4.8213,-4.8397,-4.8395,-4.8394,-4.8393,-4.8392,-4.8233,-4.8274,-4.8287,-4.8326,-4.8339,-4.8358,-4.8395,-4.8392,-4.8426,-4.846,-4.8442,-4.8491,-4.8502,-4.8537,-4.8546,-4.8582,-4.8554,-4.8577,-4.8582,-4.8589,-4.8597,-4.8426,-4.8587,-4.8586,-4.8586,-4.8585,-4.8585,0,-4.8401,-4.8408,-4.8444,-4.8473,-4.8504,-4.847,-4.849,-4.8518,-4.8561,-4.8576,-4.8604,-4.8651,-4.8687,-4.8684,-4.8716,-4.8746,-4.8731,-4.8755,-4.8753,-4.8754,-4.862,-4.8604,-4.8766,-4.8766,-4.8766,-4.8766,-4.8766,-4.8766,-4.8493,-4.856,-4.8552,-4.8625,-4.863,-4.8677,-4.8692,-4.8709,-4.872,-4.8775,-4.8805,-4.8802,-4.8809,-4.8842,-4.8873,-4.887,-4.8884,-4.8914,-4.8906,-4.8782,-4.8764,-4.8747,-4.8731,-4.8917,-4.8917,-4.9037,-4.9038,-4.9039]}]]